GPS BIIF-1 (PRN 25)

Last updated on Wed Jun 24 2026 00:03:27 GMT+0000 (Coordinated Universal Time)

1 36585U 10022A 26171.69905779 .00000034 00000+0 00000+0 0 9996 2 36585 54.2700 208.4205 0126401 66.1303 114.9344 2.00562607117666
UTC large
Height (km)
Speed (km/s)
/
Latitude / Longitude
Inclination (degrees)
Orbital Period (minutes)
Azimuth
Elevation
Range (km)
Doppler Factor

Next 0 passes for location: London (51.5072 / 0.1276)

No passes found over London.
GPS BIIF-1 (PRN 25)